Weather History for 42348 - March, 2013

Change the Weather History Date:

Monday, March 4, 2013

  Actual Average Record
Temperature  
Mean Temperature 72 °F -  
Max Temperature 89 °F - - ()
Min Temperature 56 °F - - ()
Cooling Degree Days 8    
Growing Degree Days 22 (Base 50)    
Moisture  
Dew Point 36 °F    
Average Humidity 29    
Maximum Humidity 52    
Minimum Humidity 6    
Precipitation  
Precipitation 0.00 in - - ()
Sea Level Pressure  
Sea Level Pressure 30.02 in    
Wind  
Wind Speed 2 mph ()    
Max Wind Speed 7 mph    
Max Gust Speed -    
Visibility 2.2 miles    
Events      
T = Trace of Precipitation, MM = Missing Value Source: Averaged Metar Reports

Daily Weather History Graph

Daily Weather History Graph

Search for Another Location

Airport or City:

Trip Planner

Search our weather history database for the weather conditions in past years. The results will help you decide how hot, cold, wet, or windy it might be!

Date:

Astronomy

Mar. 04, 2013 Rise Set
Actual Time 6:47 AM IST 6:29 PM IST
Civil Twilight 6:24 AM IST 6:52 PM IST
Nautical Twilight 5:57 AM IST 7:19 PM IST
Astronomical Twilight 5:30 AM IST 7:46 PM IST
Moon No Moon Rise 11:08 AM IST (3/4)
Length of Visible Light 12h 28m
Length of Day
11h 41m
Waning Gibbous, 57% of the Moon is Illuminated
Mar 4
Waning Gibbous
Mar 5
Last Quarter
Mar 12
New
Mar 19
First Quarter
Mar 27
Full

Hourly Weather History & Observations

Time (IST) Temp. Dew Point Humidity Pressure Visibility Wind Dir Wind Speed Gust Speed Precip Events Conditions
1:00 AM 64.4 °F 39.2 °F 40% 30.04 in 1.6 mi Calm Calm - N/A   Haze
2:00 AM 60.8 °F 42.8 °F 52% 30.04 in 1.6 mi Calm Calm - N/A   Haze
3:00 AM 60.8 °F 42.8 °F 52% 30.01 in 1.6 mi Variable 2.3 mph - N/A   Haze
5:00 AM 59.0 °F 41.0 °F 51% 29.98 in 1.6 mi Calm Calm - N/A   Haze
5:30 AM 59 °F 41 °F 40% 29.98 in 1 mi Calm Calm - -   Haze
6:00 AM 60.8 °F 41.0 °F 48% 30.01 in 1.6 mi Calm Calm - N/A   Haze
7:00 AM 59.0 °F 41.0 °F 51% 30.04 in 1.6 mi Calm Calm - N/A   Haze
8:00 AM 64.4 °F 46.4 °F 52% 30.06 in 1.6 mi Calm Calm - N/A   Haze
8:30 AM 66 °F 45 °F 35% 30.04 in 1 mi Calm Calm - -   Haze
10:00 AM 78.8 °F 39.2 °F 24% 30.09 in 1.9 mi SW 4.6 mph - N/A   Haze
11:00 AM 82.4 °F 35.6 °F 19% 30.09 in 2.5 mi SW 3.5 mph - N/A   Haze
1:00 PM 86.0 °F 28.4 °F 12% 30.06 in 3.1 mi Variable 6.9 mph - N/A   Haze
2:00 PM 87.8 °F 28.4 °F 12% 30.04 in 3.1 mi West 6.9 mph - N/A   Haze
2:30 PM 89 °F 30 °F 6% 29.93 in 2 mi NE 6.9 mph - -   Haze
3:00 PM 87.8 °F 24.8 °F 10% 30.01 in 3.1 mi East 4.6 mph - N/A   Haze
4:00 PM 87.8 °F 21.2 °F 9% 29.98 in 3.7 mi NW 4.6 mph - N/A   Unknown
5:00 PM 87.8 °F 21.2 °F 9% 29.98 in 3.7 mi Variable 2.3 mph - N/A   Unknown
6:00 PM 86.0 °F 23.0 °F 10% 29.98 in 3.7 mi Variable 2.3 mph - N/A   Unknown
8:00 PM 75.2 °F 32.0 °F 21% 30.01 in 2.2 mi Calm Calm - N/A   Haze
9:00 PM 71.6 °F 35.6 °F 27% 30.04 in 2.2 mi Variable 1.2 mph - N/A   Haze
10:00 PM 73.4 °F 42.8 °F 33% 30.04 in 2.2 mi East 6.9 mph - N/A   Haze
11:00 PM 71.6 °F 42.8 °F 35% 30.04 in 2.2 mi East 5.8 mph - N/A   Unknown
11:30 PM 71 °F 43 °F 25% 29.99 in 1 mi East 4.6 mph - -   Haze